Weather History for Buffalo, WY

Change the Weather History Date:

Thursday, May 2, 2013

  Actual Average Record
Temperature  
Mean Temperature 41 °F 48 °F  
Max Temperature 54 °F 59 °F 82 °F (2000)
Min Temperature 27 °F 38 °F 17 °F (2005)
Degree Days  
Heating Degree Days 24 17  
Month to date heating degree days 54 34  
Since 1 July heating degree days 6759 6878  
Cooling Degree Days 0 0  
Month to date cooling degree days 0 0  
Year to date cooling degree days 0 0  
Moisture  
Dew Point 17 °F    
Average Humidity 41    
Maximum Humidity 58    
Minimum Humidity 24    
Precipitation  
Precipitation 0.00 in 0.06 in 0.08 in (2008)
Month to date precipitation 0.00 0.12  
Year to date precipitation 1.52 3.11  
Sea Level Pressure  
Sea Level Pressure 30.52 in    
Wind  
Wind Speed 6 mph (West)    
Max Wind Speed 14 mph    
Max Gust Speed 22 mph    
Visibility 10 miles    
Events      
T = Trace of Precipitation, MM = Missing Value Source: NWS Daily Summary

Daily Weather History Graph

Daily Weather History Graph

Search for Another Location

Airport:

Trip Planner

Search our weather history database for the weather conditions in past years. The results will help you decide how hot, cold, wet, or windy it might be!

Date:

Astronomy

May. 02, 2013 Rise Set
Actual Time 5:55 AM MDT 8:12 PM MDT
Civil Twilight 5:23 AM MDT 8:44 PM MDT
Nautical Twilight 4:43 AM MDT 9:24 PM MDT
Astronomical Twilight 3:59 AM MDT 10:09 PM MDT
Moon 2:01 AM MDT (5/2) 12:49 PM MDT (5/2)
Length of Visible Light 15h 21m
Length of Day
14h 16m
Waning Gibbous, 47% of the Moon is Illuminated
May 2
Waning Gibbous
May 9
New
May 17
First Quarter
May 24
Full
May 31
Last Quarter

Hourly Weather History & Observations

Time (MDT) Temp. Windchill Dew Point Humidity Pressure Visibility Wind Dir Wind Speed Gust Speed Precip Events Conditions
12:53 AM 33.1 °F 24.9 °F 14.0 °F 46% 30.63 in 10.0 mi WSW 10.4 mph - N/A   Scattered Clouds
1:53 AM 30.9 °F 22.8 °F 12.9 °F 47% 30.62 in 10.0 mi West 9.2 mph - N/A   Clear
2:53 AM 28.0 °F 19.3 °F 14.0 °F 56% 30.62 in 10.0 mi West 9.2 mph - N/A   Clear
3:53 AM 27.0 °F 18.7 °F 14.0 °F 58% 30.64 in 10.0 mi WNW 8.1 mph - N/A   Clear
4:53 AM 28.0 °F 20.0 °F 15.1 °F 58% 30.63 in 10.0 mi West 8.1 mph - N/A   Clear
5:53 AM 28.0 °F 19.3 °F 14.0 °F 56% 30.64 in 10.0 mi West 9.2 mph - N/A   Clear
6:53 AM 34.0 °F 28.0 °F 17.1 °F 50% 30.65 in 10.0 mi West 6.9 mph - N/A   Partly Cloudy
7:53 AM 39.0 °F 36.8 °F 14.0 °F 36% 30.64 in 10.0 mi NW 3.5 mph - N/A   Scattered Clouds
8:53 AM 43.0 °F 38.8 °F 16.0 °F 34% 30.63 in 10.0 mi NNE 6.9 mph - N/A   Clear
9:53 AM 45.0 °F 39.7 °F 17.1 °F 33% 30.62 in 10.0 mi NNE 10.4 mph 21.9 mph N/A   Scattered Clouds
10:53 AM 45.0 °F 43.5 °F 15.1 °F 30% 30.61 in 10.0 mi Variable 3.5 mph - N/A   Clear
11:53 AM 46.0 °F 44.8 °F 15.1 °F 29% 30.59 in 10.0 mi Variable 3.5 mph - N/A   Clear
12:53 PM 46.9 °F - 15.1 °F 28% 30.55 in 10.0 mi Variable 3.5 mph - N/A   Clear
1:53 PM 50.0 °F - 18.0 °F 28% 30.51 in 10.0 mi Calm Calm - N/A   Clear
2:53 PM 51.1 °F - 18.0 °F 27% 30.49 in 10.0 mi South 5.8 mph - N/A   Clear
3:53 PM 53.1 °F - 18.0 °F 25% 30.46 in 10.0 mi Variable 4.6 mph - N/A   Clear
4:53 PM 52.0 °F - 18.0 °F 26% 30.44 in 10.0 mi Variable 3.5 mph - N/A   Clear
5:53 PM 53.1 °F - 18.0 °F 25% 30.42 in 10.0 mi Variable 3.5 mph - N/A   Clear
6:53 PM 52.0 °F - 18.0 °F 26% 30.39 in 10.0 mi Variable 6.9 mph - N/A   Clear
7:53 PM 46.9 °F - 21.9 °F 37% 30.38 in 10.0 mi South 6.9 mph - N/A   Clear
8:53 PM 42.1 °F 38.4 °F 23.0 °F 47% 30.38 in 10.0 mi SW 5.8 mph - N/A   Clear
9:53 PM 41.0 °F 37.1 °F 25.0 °F 53% 30.36 in 10.0 mi SW 5.8 mph - N/A   Clear
10:53 PM 42.1 °F 39.2 °F 24.1 °F 49% 30.34 in 10.0 mi WSW 4.6 mph - N/A   Clear
11:53 PM 42.1 °F 38.4 °F 23.0 °F 47% 30.32 in 10.0 mi SW 5.8 mph - N/A   Clear